Regional Weather Roundup
Issued by NWS

Home | Current Version | Previous Version | Graphics & Text | Print | Product List | Glossary On
Versions: 1 2 3 4 5 6 7 8 9 10 11 12 13 14 15 16 17 18 19 20 21 22 23 24 25 26 27 28 29 30 31 32 33 34 35 36 37 38 39 40 41 42 43 44 45 46 47 48 49 50
000
ASUS44 KMEG 240110
RWRTN
TENNESSEE HOURLY STATE WEATHER ROUNDUP
NATIONAL WEATHER SERVICE MEMPHIS TN
700 PM CST FRI FEB 23 2018

TNZ002-004-019-021-049-052-054-088>092-240200-
WEST TENNESSEE

CITY           SKY/WX    TMP DP  RH WIND       PRES   REMARKS
MEMPHIS INTL   CLOUDY    59  58  96 N10       30.18F
NWS MEMPHIS      N/A     59 N/A N/A MISG        N/A
JACKSON        CLOUDY    60  60 100 N9        30.22R
DYERSBURG      CLOUDY    56  54  93 CALM      30.23R
COVINGTON      CLOUDY    57  55  94 NE8       30.22F
UNION CITY     MOCLDY    54  54 100 CALM      30.19F
BOLIVAR        CLOUDY    63  61  94 VRB5      30.21R FOG
PARIS          CLOUDY    57  55  94 S6G12     30.23R FOG
LEXINGTON      CLOUDY    66  64  94 NW12      30.18S FOG
SELMER         CLOUDY    68  64  88 CALM      30.18R
SAVANNAH       MOCLDY    70  61  73 S6        30.19R
$$

TNZ008-025-027-028-033-062-065-066-240200-
NORTH MIDDLE TENNESSEE

CITY           SKY/WX    TMP DP  RH WIND       PRES   REMARKS
NASHVILLE      FAIR      71  55  56 S5        30.19S
PORTLAND       CLOUDY    68  63  83 CALM      30.19R
CLARKSVILLE    LGT RAIN  61  58  90 N10       30.19F
SMYRNA         FAIR      70  57  63 S8        30.20S
COOKEVILLE     PTCLDY    61  57  88 CALM      30.21S
GALLATIN       CLEAR     72  55  56 CALM      30.21R
CROSSVILLE     FAIR      66  53  63 S5        30.26F
$$

TNZ061-075-076-078-094-096-097-240200-
SOUTH MIDDLE TENNESSEE

CITY           SKY/WX    TMP DP  RH WIND       PRES   REMARKS
FAYETTEVILLE   PTCLDY    68  55  64 CALM      30.21F
TULLAHOMA      PTCLDY    68  54  60 S5        30.22R
WINCHESTER     CLEAR     68  54  60 CALM      30.23R
MCMINNVILLE    PTCLDY    68  55  64 CALM      30.22R
COLUMBIA       CLEAR     70  55  60 SE3       30.17F
SHELBYVILLE    CLEAR     64  57  77 SE3       30.21S
$$

TNZ017-018-042-046-047-240200-
NORTHEAST TENNESSEE

CITY           SKY/WX    TMP DP  RH WIND       PRES   REMARKS
TRI CITIES     FAIR      67  56  67 CALM      30.26S
ELIZABETHTON   CLOUDY    66  55  68 CALM      30.27S
$$

TNZ012-013-036-069-073-074-240200-
CENTRAL EAST TENNESSEE

CITY           SKY/WX    TMP DP  RH WIND       PRES   REMARKS
KNOXVILLE      FAIR      69  54  58 S7        30.23S
OAK RIDGE      FAIR      67  57  70 CALM      30.24S
GATLINBURG     CLEAR     66  50  55 CALM      30.24S
JACKSBORO      CLEAR     63  55  77 CALM      30.26F
$$

TNZ083-085-099-240200-
SOUTHEAST TENNESSEE

CITY           SKY/WX    TMP DP  RH WIND       PRES   REMARKS
CHATTANOOGA    MOCLDY    74  57  55 SE6       30.23S
$$

SKY/WX REPORTED AS FAIR MEANS FEW OR NO CLOUDS BELOW
12 THOUSAND FEET.





USA.gov is the U.S. government's official web portal to all federal, state and local government web resources and services.